Temp
23 24 24 24 25 25 25 25 25 24 24 24 24 23 23 23 22 22 21 21 21 21 21 21 21 21 21 21 21 21 20 20 20 20 20 20 20 21 20 21 21 21 20 21 21 21 21 20 20 21 21 20 21 21 21 21 21 21 21 21 21 20 20
22 23 24 24 25 25 25 25 25 24 24 24 24 23 23 23 22 22 22 21 21 21 21 21 21 21 21 21 21 21 20 20 20 20 21 20 20 21 21 21 21 21 20 20 20 20 20 20 20 20 20 20 20 21 21 21 21 21 21 21 21 21 21
22 23 23 24 24 25 25 25 25 24 24 24 24 24 23 23 23 22 22 22 21 21 21 21 21 21 21 21 21 21 21 20 20 20 21 21 20 20 20 20 20 20 20 20 20 20 20 20 20 20 20 20 20 20 20 21 21 21 21 21 21 21 21
22 23 23 24 24 24 25 25 25 25 25 24 24 24 23 23 23 22 22 22 22 21 21 21 21 21 21 21 21 21 21 21 20 21 21 21 20 20 20 20 20 20 20 20 20 20 20 20 20 20 20 20 20 20 20 20 20 21 21 21 21 21 21
22 23 23 23 24 24 25 25 25 25 24 24 24 24 24 23 23 22 22 22 22 22 22 21 21 21 21 21 22 22 21 21 21 21 21 20 20 20 20 20 20 20 20 20 20 20 20 20 20 20 20 20 20 20 20 20 20 20 21 21 21 21 21
23 23 23 23 23 24 24 25 25 25 25 24 24 24 24 23 23 22 22 22 22 21 21 21 21 21 21 21 21 22 22 21 21 21 20 20 20 20 20 20 20 20 20 21 20 20 20 20 20 20 21 20 20 21 21 20 20 20 21 21 21 21 21
23 23 23 23 23 24 24 25 25 25 25 24 24 24 24 23 23 23 22 22 22 21 21 21 21 21 21 21 21 21 22 22 21 21 21 20 20 20 20 20 20 20 20 21 21 21 20 20 20 20 20 20 20 21 21 21 20 20 21 21 21 21 21
23 24 24 24 24 23 23 24 24 24 24 24 24 24 24 23 23 22 22 22 22 21 21 21 21 21 21 21 21 21 22 22 21 21 21 20 20 20 20 20 20 20 20 20 21 21 21 20 20 21 21 20 20 20 20 21 20 20 21 21 20 21 20
23 24 23 23 23 23 23 22 22 23 23 24 24 24 24 23 23 22 22 22 22 21 21 21 21 20 21 21 20 20 21 21 21 21 21 20 20 20 20 20 20 20 20 20 21 21 21 21 21 21 21 21 20 20 20 20 20 20 20 21 20 20 20
21 22 22 23 23 23 22 22 22 22 22 22 24 24 24 23 23 22 22 22 22 21 21 21 21 20 21 21 20 20 20 20 21 21 21 21 20 20 20 20 20 20 20 20 20 21 21 21 20 21 21 21 20 20 20 20 20 20 20 20 20 20 20
21 21 21 22 22 22 22 22 22 22 22 22 23 24 23 23 23 23 22 22 22 21 21 21 21 21 21 21 21 20 20 20 20 20 20 20 20 20 20 21 21 21 21 20 21 21 21 21 20 21 21 21 21 20 20 20 20 20 20 20 20 20 20
21 21 21 21 21 21 20 21 21 22 22 22 23 23 23 23 23 22 22 22 22 22 22 22 21 21 21 21 21 21 20 20 20 20 20 20 20 20 21 21 21 21 21 21 21 21 21 21 21 21 21 21 21 20 20 20 20 20 20 20 20 20 20
20 19 20 21 20 20 20 20 20 21 21 22 23 23 22 22 22 22 22 22 22 22 22 22 21 22 22 21 21 21 21 21 21 21 21 21 21 21 21 21 21 21 21 21 21 21 21 21 21 21 21 21 21 21 21 20 20 20 20 20 20 20 20
18 18 19 19 19 18 19 19 19 20 21 22 22 22 22 22 22 22 22 22 22 22 22 22 21 22 21 21 21 21 21 21 21 21 21 21 21 21 21 21 21 21 21 21 21 21 21 21 21 21 21 21 21 21 20 20 20 21 20 20 20 20 20
17 17 18 18 18 18 18 18 18 19 20 21 21 22 22 22 22 22 21 21 21 21 21 21 21 21 21 21 21 21 21 21 21 21 21 21 21 21 21 21 21 22 22 21 21 21 21 21 21 21 21 21 21 21 20 20 20 20 20 20 20 20 20
16 16 17 17 17 18 18 18 17 18 18 19 19 20 20 21 21 21 21 21 21 21 21 21 21 21 21 21 21 21 20 20 20 21 21 21 21 21 21 21 21 21 22 21 21 21 21 21 21 21 21 21 21 21 20 20 20 20 20 20 20 20 20
16 16 16 16 16 17 17 17 17 17 18 18 18 19 19 19 19 19 20 20 20 21 21 21 21 21 21 21 20 21 20 19 20 20 21 21 21 21 21 21 21 21 21 21 21 20 21 21 21 20 20 20 20 20 20 20 20 21 20 20 20 20 20
16 16 15 16 16 16 16 17 17 17 18 18 18 19 19 19 19 18 18 19 19 20 21 21 21 20 20 20 20 21 21 20 20 21 21 21 21 21 21 21 21 21 21 21 21 20 21 21 20 20 20 20 20 20 20 20 20 21 20 20 20 20 20
15 15 15 15 16 15 16 17 17 16 17 17 17 18 18 18 18 17 17 19 19 19 20 20 19 19 19 19 20 20 20 20 20 21 21 21 21 20 20 21 21 21 21 21 21 20 20 20 20 20 20 20 20 20 20 20 20 21 20 20 20 20 20
15 16 15 15 15 15 15 16 16 16 16 16 17 17 17 18 18 17 17 18 18 19 19 19 19 19 19 19 18 19 19 19 19 20 20 20 20 20 20 20 20 21 21 21 21 20 20 20 20 20 20 20 20 20 20 20 21 21 20 20 20 20 20
15 16 16 15 15 15 15 15 16 16 16 16 16 16 17 17 17 17 17 17 17 18 18 18 19 19 18 18 18 18 18 19 19 20 20 20 20 19 19 19 20 20 20 20 21 20 20 20 20 20 20 20 20 20 20 20 20 20 20 20 20 20 20
15 15 15 15 15 15 15 15 15 16 15 15 15 15 16 16 16 16 16 17 17 17 17 18 18 18 18 18 18 18 18 18 19 19 19 19 19 19 19 19 19 19 19 20 20 20 20 20 20 19 19 19 19 19 19 20 20 20 20 20 20 20 20
15 15 15 15 15 15 15 15 15 15 15 15 15 15 15 15 15 15 16 16 16 17 17 17 17 17 17 17 17 17 17 18 18 18 18 19 19 19 19 19 19 19 19 19 19 19 20 20 20 20 19 19 19 19 19 19 19 19 20 20 20 21 21
14 15 14 14 14 15 15 15 14 14 14 14 14 14 14 14 14 14 15 15 15 15 16 17 16 16 15 16 16 16 17 17 17 17 17 18 18 18 18 18 18 18 18 19 19 19 19 19 19 19 19 19 19 19 19 19 19 19 19 20 20 20 20
14 14 14 14 14 14 14 14 14 14 14 14 14 14 13 13 13 14 14 14 14 15 15 16 15 15 15 15 15 15 16 16 16 16 16 17 17 17 17 17 17 18 18 18 18 18 18 18 18 18 18 18 18 19 19 19 19 19 19 19 20 20 20
14 14 14 14 14 14 14 14 14 14 14 13 13 14 13 13 13 13 13 14 14 14 15 14 14 14 14 15 14 15 15 15 15 15 16 16 16 17 17 17 17 17 17 18 18 18 17 17 17 18 18 18 18 18 18 18 18 18 19 19 19 19 20
14 13 13 14 14 14 14 14 14 14 13 13 13 13 13 14 14 13 13 13 14 14 14 14 14 14 14 14 14 14 14 14 14 15 15 15 16 16 16 17 17 17 17 17 17 17 17 17 17 17 17 17 17 17 17 17 17 18 18 18 19 19 19
13 13 13 14 14 14 14 14 14 14 14 14 14 13 13 13 13 13 12 12 12 13 13 14 14 14 14 14 14 14 14 14 14 14 15 15 15 15 15 16 16 16 16 17 17 17 17 17 17 17 17 17 17 16 16 17 17 17 17 18 18 18 18
13 13 13 14 14 14 14 14 15 15 14 14 14 14 14 14 14 13 13 12 12 12 13 13 14 14 14 14 14 14 14 14 14 14 14 14 15 15 15 15 15 16 16 16 16 16 16 16 16 16 16 16 16 16 16 16 16 16 17 17 17 17 17
13 13 13 14 14 15 15 15 15 15 14 14 14 14 14 14 14 14 14 13 12 12 12 12 13 14 14 14 14 14 14 14 14 14 14 14 14 14 14 15 15 15 15 15 16 16 16 16 15 15 15 15 15 15 15 15 15 15 16 16 16 17 17
13 13 14 14 14 14 15 15 15 15 15 15 15 15 14 14 14 14 14 14 13 13 13 13 13 13 13 13 14 14 14 14 14 14 14 14 14 14 14 14 14 14 15 15 15 15 15 16 15 15 15 14 15 15 15 14 14 15 16 16 16 16 17
13 14 14 14 14 14 14 14 14 14 14 15 15 15 15 15 15 15 14 14 14 14 14 14 13 13 12 13 13 13 13 14 14 14 14 14 14 14 14 14 14 14 14 14 15 15 15 15 15 15 15 14 14 14 14 14 14 15 15 16 16 16 16
13 14 14 14 14 14 14 14 15 14 14 14 15 15 15 15 15 15 15 14 14 14 14 14 14 14 13 13 13 13 13 13 13 14 14 14 14 14 14 15 15 15 15 14 14 15 15 15 15 15 15 14 14 14 14 14 14 15 15 15 16 16 16
13 14 14 14 14 14 14 14 15 15 14 14 14 14 14 15 15 15 15 15 15 14 14 14 14 14 14 14 13 13 13 13 13 13 14 14 14 14 14 14 15 15 15 14 14 14 14 15 15 14 14 14 14 14 14 14 14 15 15 15 15 16 16
13 14 14 14 14 14 14 14 14 14 14 14 14 14 14 14 14 15 15 15 15 15 14 14 14 14 13 13 13 13 13 13 13 13 13 13 13 13 14 14 14 15 15 14 14 14 14 14 14 14 14 14 14 14 14 14 14 14 15 15 15 15 15
13 13 14 14 13 13 14 14 14 14 14 14 14 14 14 14 13 14 14 14 15 15 15 15 15 15 14 13 13 13 13 13 13 12 12 13 13 13 13 13 14 14 14 14 15 14 14 14 14 14 14 14 14 14 14 14 14 14 14 15 15 15 16
13 13 13 13 13 13 13 13 13 14 14 14 14 14 14 14 14 13 13 13 13 14 14 14 14 15 14 13 12 13 13 13 13 12 12 13 13 13 13 12 12 13 13 14 14 14 14 14 14 14 14 14 14 14 14 14 14 14 14 15 15 15 16
13 13 13 12 12 13 13 13 13 13 13 14 13 14 14 14 14 13 13 13 13 12 12 13 13 14 14 13 13 13 13 13 13 12 12 12 12 12 12 12 12 12 12 12 13 13 13 13 14 14 14 14 14 14 15 15 15 15 15 15 15 15 15
Height
1518 1520 1522 1524 1526 1529 1531 1533 1536 1539 1542 1544 1546 1548 1550 1551 1552 1554 1556 1559 1561 1563 1564 1566 1568 1570 1572 1574 1576 1577 1579 1580 1582 1583 1584 1586 1587 1588 1589 1590 1591 1592 1593 1593 1594 1594 1595 1596 1597 1598 1598 1599 1600 1601 1601 1602 1603 1603 1604 1604 1605 1605 1606
1515 1517 1519 1522 1524 1526 1529 1531 1534 1536 1539 1542 1544 1546 1548 1549 1551 1552 1554 1557 1559 1561 1563 1565 1567 1569 1571 1573 1575 1576 1578 1579 1581 1582 1583 1585 1586 1587 1589 1590 1591 1592 1592 1593 1594 1594 1595 1596 1596 1597 1598 1598 1599 1600 1601 1601 1602 1602 1603 1604 1604 1605 1606
1513 1515 1516 1519 1521 1524 1527 1529 1531 1534 1537 1539 1542 1544 1545 1547 1549 1551 1553 1555 1558 1560 1562 1564 1565 1567 1569 1571 1573 1575 1576 1578 1579 1581 1582 1584 1585 1586 1588 1589 1590 1591 1592 1592 1593 1594 1594 1595 1596 1597 1597 1598 1599 1599 1600 1601 1601 1602 1602 1603 1603 1604 1605
1511 1513 1515 1518 1519 1522 1524 1526 1529 1531 1534 1537 1539 1542 1543 1545 1547 1549 1551 1553 1556 1558 1560 1562 1564 1566 1568 1569 1571 1573 1575 1577 1578 1580 1581 1583 1584 1585 1586 1588 1589 1590 1590 1591 1592 1593 1594 1595 1595 1596 1597 1597 1598 1598 1599 1600 1600 1601 1601 1602 1603 1603 1603
1509 1511 1514 1516 1517 1520 1522 1524 1526 1528 1531 1534 1537 1540 1542 1543 1546 1548 1550 1552 1554 1556 1558 1561 1563 1564 1566 1568 1570 1572 1573 1575 1577 1579 1580 1582 1583 1584 1585 1586 1587 1588 1589 1590 1592 1592 1593 1594 1594 1595 1596 1596 1597 1597 1598 1599 1599 1600 1601 1601 1602 1602 1603
1507 1509 1511 1514 1516 1518 1520 1522 1524 1526 1530 1532 1535 1539 1540 1542 1544 1546 1549 1551 1552 1555 1557 1559 1561 1563 1565 1566 1568 1570 1572 1574 1576 1577 1579 1580 1582 1583 1584 1585 1586 1587 1588 1589 1590 1591 1592 1593 1593 1594 1595 1595 1596 1596 1597 1598 1598 1599 1600 1600 1601 1601 1602
1505 1507 1510 1512 1514 1517 1519 1521 1523 1525 1528 1530 1534 1538 1539 1540 1542 1544 1547 1549 1551 1553 1555 1557 1559 1561 1563 1565 1567 1568 1570 1572 1574 1576 1578 1579 1581 1582 1583 1584 1584 1585 1587 1587 1589 1590 1590 1591 1592 1593 1594 1595 1595 1596 1596 1597 1597 1598 1599 1599 1600 1601 1601
1504 1506 1509 1511 1514 1517 1519 1521 1522 1524 1527 1529 1532 1536 1537 1538 1540 1542 1545 1547 1550 1552 1553 1555 1557 1559 1562 1563 1565 1567 1569 1571 1573 1574 1576 1578 1579 1580 1581 1582 1583 1584 1585 1586 1587 1588 1589 1590 1591 1592 1593 1593 1594 1595 1595 1596 1596 1597 1598 1598 1599 1600 1601
1505 1507 1509 1511 1513 1514 1517 1521 1522 1523 1526 1528 1530 1533 1536 1537 1539 1541 1543 1546 1548 1550 1552 1554 1556 1558 1560 1562 1564 1565 1567 1569 1571 1573 1575 1576 1577 1579 1580 1581 1582 1583 1584 1584 1585 1586 1588 1589 1589 1590 1591 1592 1593 1593 1594 1595 1595 1596 1597 1597 1598 1599 1600
1505 1508 1509 1511 1512 1512 1516 1520 1521 1522 1526 1529 1530 1531 1533 1535 1537 1540 1542 1544 1546 1548 1551 1553 1555 1557 1559 1561 1563 1564 1566 1568 1569 1571 1573 1574 1576 1577 1578 1580 1580 1581 1582 1583 1584 1585 1586 1587 1588 1589 1590 1590 1591 1592 1592 1593 1594 1595 1596 1596 1597 1598 1599
1505 1508 1509 1511 1512 1513 1515 1519 1520 1521 1524 1527 1528 1529 1531 1533 1536 1538 1540 1542 1545 1547 1550 1552 1554 1555 1557 1559 1561 1563 1565 1567 1568 1570 1572 1573 1575 1576 1577 1578 1579 1580 1581 1582 1583 1583 1584 1585 1586 1587 1588 1589 1590 1590 1591 1592 1593 1594 1594 1595 1596 1597 1597
1505 1506 1508 1510 1511 1514 1516 1519 1521 1521 1522 1525 1525 1527 1529 1532 1534 1537 1539 1541 1543 1545 1548 1551 1553 1554 1556 1558 1560 1562 1564 1566 1568 1569 1571 1572 1574 1575 1577 1578 1578 1578 1579 1580 1581 1582 1583 1584 1584 1585 1586 1587 1588 1589 1590 1591 1592 1592 1593 1594 1595 1595 1596
1506 1507 1509 1510 1510 1513 1515 1517 1520 1521 1522 1523 1524 1526 1528 1530 1533 1535 1537 1539 1541 1544 1547 1549 1552 1554 1556 1558 1560 1562 1564 1565 1567 1569 1571 1572 1573 1575 1576 1577 1578 1578 1577 1578 1580 1580 1581 1582 1583 1584 1585 1586 1587 1587 1589 1589 1590 1591 1592 1593 1594 1594 1595
1508 1508 1509 1510 1511 1513 1515 1517 1519 1520 1521 1522 1523 1525 1526 1528 1531 1533 1535 1538 1540 1542 1545 1548 1550 1553 1555 1558 1560 1563 1565 1566 1568 1569 1570 1572 1573 1574 1575 1576 1577 1577 1577 1577 1578 1579 1580 1581 1582 1583 1583 1585 1585 1586 1587 1588 1589 1590 1591 1592 1592 1593 1594
1511 1510 1510 1509 1510 1512 1514 1517 1519 1521 1521 1521 1522 1523 1525 1527 1529 1530 1533 1536 1538 1540 1543 1546 1549 1551 1554 1556 1559 1561 1563 1565 1567 1568 1569 1570 1571 1573 1574 1575 1575 1575 1575 1576 1576 1577 1578 1579 1580 1581 1581 1583 1584 1585 1586 1587 1588 1589 1590 1591 1592 1592 1592
1512 1513 1512 1510 1509 1510 1512 1515 1517 1519 1520 1520 1521 1522 1524 1527 1529 1530 1532 1534 1537 1539 1541 1544 1548 1550 1553 1555 1556 1558 1559 1561 1563 1565 1567 1568 1569 1570 1571 1572 1573 1573 1574 1574 1575 1576 1576 1577 1578 1579 1579 1580 1581 1583 1584 1585 1586 1588 1589 1590 1591 1591 1591
1512 1514 1515 1515 1514 1513 1513 1515 1516 1516 1518 1520 1522 1524 1526 1529 1530 1531 1532 1533 1535 1538 1540 1543 1545 1548 1551 1553 1555 1557 1560 1562 1563 1564 1565 1565 1566 1567 1568 1570 1571 1572 1572 1573 1573 1574 1574 1575 1576 1577 1578 1578 1579 1580 1581 1582 1583 1585 1586 1588 1588 1589 1589
1515 1517 1518 1518 1518 1516 1515 1516 1517 1517 1519 1521 1523 1525 1528 1531 1531 1532 1532 1533 1535 1537 1539 1542 1544 1546 1549 1551 1554 1557 1560 1562 1564 1564 1564 1564 1564 1565 1566 1568 1569 1570 1571 1571 1572 1572 1573 1573 1574 1575 1576 1577 1577 1578 1579 1579 1581 1582 1583 1585 1586 1587 1587
1517 1519 1519 1521 1521 1519 1517 1517 1518 1520 1520 1521 1522 1524 1527 1529 1531 1532 1534 1535 1536 1537 1539 1542 1544 1546 1548 1550 1553 1556 1558 1560 1562 1562 1563 1562 1562 1562 1564 1565 1567 1568 1568 1569 1570 1570 1571 1571 1572 1573 1574 1574 1575 1576 1577 1578 1579 1580 1581 1582 1584 1585 1585
1517 1518 1519 1520 1520 1519 1519 1519 1521 1523 1523 1523 1524 1525 1527 1529 1531 1534 1535 1536 1536 1536 1538 1540 1542 1545 1547 1549 1553 1556 1558 1560 1560 1560 1560 1559 1559 1560 1561 1562 1564 1565 1566 1566 1567 1568 1568 1568 1569 1570 1571 1572 1572 1574 1575 1576 1577 1577 1578 1580 1582 1583 1584
1517 1518 1519 1520 1519 1519 1520 1522 1523 1524 1525 1526 1527 1527 1528 1530 1532 1533 1534 1534 1535 1535 1537 1539 1542 1544 1547 1550 1553 1555 1557 1557 1557 1557 1557 1556 1557 1557 1558 1559 1560 1561 1562 1563 1564 1565 1565 1566 1566 1567 1568 1569 1570 1571 1572 1573 1574 1575 1576 1578 1579 1580 1581
1521 1521 1521 1521 1521 1521 1522 1524 1524 1525 1526 1527 1528 1528 1529 1530 1531 1531 1531 1532 1533 1534 1536 1539 1541 1543 1545 1548 1551 1552 1552 1552 1552 1553 1553 1554 1555 1555 1556 1557 1557 1557 1558 1560 1561 1562 1563 1564 1564 1565 1565 1566 1567 1569 1570 1571 1572 1573 1574 1576 1576 1577 1578
1525 1524 1523 1523 1523 1524 1525 1527 1527 1527 1527 1527 1528 1528 1529 1530 1530 1529 1529 1530 1530 1532 1534 1536 1537 1539 1542 1544 1546 1547 1547 1547 1548 1549 1550 1551 1552 1553 1553 1553 1554 1554 1555 1556 1558 1559 1560 1561 1561 1562 1563 1564 1565 1566 1567 1568 1569 1571 1572 1573 1574 1574 1575
1527 1527 1528 1528 1528 1527 1528 1530 1530 1530 1530 1529 1529 1529 1530 1530 1529 1528 1528 1529 1529 1530 1532 1534 1536 1538 1540 1542 1542 1542 1543 1544 1544 1545 1547 1548 1549 1550 1550 1551 1551 1551 1552 1553 1554 1555 1556 1557 1557 1558 1559 1561 1562 1563 1564 1565 1566 1567 1569 1570 1571 1571 1571
1530 1531 1532 1532 1531 1531 1532 1533 1532 1532 1531 1531 1531 1531 1530 1530 1529 1528 1528 1529 1530 1531 1532 1534 1536 1539 1540 1541 1540 1540 1541 1541 1541 1542 1544 1545 1546 1547 1547 1547 1548 1548 1549 1550 1550 1551 1552 1553 1554 1555 1556 1557 1558 1559 1560 1562 1563 1564 1565 1566 1567 1567 1568
1534 1534 1534 1534 1533 1532 1532 1532 1532 1531 1532 1532 1533 1532 1531 1530 1529 1528 1529 1530 1531 1532 1533 1536 1538 1539 1540 1540 1540 1540 1540 1540 1540 1541 1542 1543 1544 1544 1544 1544 1545 1545 1546 1547 1547 1548 1549 1550 1551 1552 1553 1554 1555 1555 1556 1558 1559 1560 1561 1562 1563 1564 1564
1535 1535 1535 1535 1534 1533 1533 1532 1532 1531 1532 1532 1532 1531 1531 1530 1530 1530 1531 1532 1534 1536 1537 1538 1539 1540 1541 1541 1540 1541 1541 1541 1542 1542 1542 1543 1543 1543 1543 1543 1543 1544 1544 1544 1545 1545 1547 1548 1548 1549 1550 1551 1551 1551 1552 1554 1555 1556 1556 1558 1559 1560 1561
1536 1535 1536 1536 1536 1535 1535 1535 1535 1535 1535 1534 1534 1533 1533 1533 1533 1534 1535 1536 1537 1539 1540 1540 1540 1541 1542 1542 1542 1542 1542 1542 1543 1544 1543 1543 1542 1542 1543 1543 1543 1543 1543 1543 1543 1544 1544 1545 1545 1546 1547 1548 1548 1549 1549 1550 1551 1552 1553 1554 1556 1557 1558
1536 1536 1536 1536 1537 1537 1537 1537 1537 1537 1537 1537 1537 1536 1536 1536 1537 1538 1539 1539 1540 1541 1541 1541 1541 1542 1543 1543 1543 1543 1543 1544 1544 1544 1544 1543 1543 1543 1543 1542 1542 1542 1543 1543 1543 1543 1543 1543 1544 1545 1546 1547 1548 1548 1548 1548 1548 1548 1549 1551 1552 1554 1555
1537 1538 1538 1538 1538 1539 1539 1539 1539 1538 1538 1538 1538 1538 1538 1538 1539 1540 1541 1542 1542 1542 1542 1542 1542 1543 1543 1544 1544 1544 1544 1544 1544 1545 1544 1544 1543 1543 1543 1542 1542 1542 1542 1542 1542 1542 1542 1543 1544 1546 1546 1547 1547 1547 1547 1547 1547 1547 1547 1548 1550 1551 1553
1539 1539 1539 1539 1540 1540 1540 1540 1540 1539 1539 1538 1538 1538 1539 1539 1540 1541 1541 1542 1543 1543 1543 1543 1543 1542 1543 1544 1545 1545 1545 1545 1545 1545 1545 1545 1545 1544 1543 1543 1543 1542 1542 1542 1542 1543 1543 1544 1545 1546 1546 1547 1547 1546 1546 1547 1547 1547 1547 1547 1549 1551 1552
1541 1541 1540 1540 1540 1540 1541 1541 1541 1540 1539 1538 1538 1539 1539 1540 1541 1542 1542 1543 1543 1543 1543 1543 1543 1543 1544 1545 1546 1546 1546 1546 1546 1546 1546 1545 1546 1546 1545 1544 1544 1544 1543 1543 1543 1543 1543 1544 1545 1546 1547 1547 1547 1546 1547 1547 1547 1547 1547 1548 1549 1551 1552
1542 1542 1542 1541 1541 1541 1541 1541 1541 1540 1539 1538 1538 1539 1539 1540 1541 1542 1543 1543 1543 1543 1543 1543 1543 1543 1545 1546 1546 1546 1546 1547 1546 1546 1546 1546 1546 1546 1546 1546 1545 1545 1545 1545 1545 1545 1544 1544 1545 1546 1547 1547 1547 1548 1548 1548 1548 1548 1548 1549 1550 1551 1552
1543 1542 1543 1543 1542 1543 1542 1542 1541 1540 1539 1539 1539 1539 1540 1541 1541 1542 1542 1543 1543 1543 1543 1543 1543 1543 1544 1545 1546 1546 1546 1547 1547 1546 1546 1546 1546 1547 1546 1546 1546 1546 1546 1547 1547 1547 1546 1546 1546 1547 1547 1548 1548 1548 1548 1548 1548 1548 1549 1550 1550 1551 1552
1542 1543 1544 1544 1544 1544 1543 1542 1542 1541 1540 1540 1539 1539 1540 1541 1541 1542 1542 1543 1543 1543 1543 1543 1543 1543 1544 1544 1544 1545 1546 1547 1547 1547 1546 1546 1546 1546 1546 1546 1546 1547 1548 1549 1548 1547 1548 1548 1548 1548 1548 1548 1549 1549 1548 1548 1548 1549 1549 1550 1550 1551 1551
1542 1544 1544 1544 1545 1544 1543 1543 1543 1542 1542 1541 1540 1540 1541 1541 1541 1542 1542 1543 1543 1543 1543 1542 1542 1543 1544 1544 1544 1544 1545 1546 1547 1547 1546 1546 1546 1546 1546 1547 1548 1548 1549 1549 1548 1547 1548 1549 1549 1549 1549 1549 1549 1549 1549 1548 1548 1548 1549 1549 1550 1550 1551
1542 1543 1544 1544 1545 1544 1544 1544 1544 1543 1543 1543 1542 1542 1541 1541 1542 1542 1542 1543 1543 1544 1543 1542 1541 1542 1542 1543 1544 1544 1544 1546 1547 1548 1548 1547 1546 1546 1547 1548 1549 1549 1549 1549 1548 1548 1549 1550 1549 1549 1549 1549 1548 1548 1548 1548 1547 1547 1548 1548 1548 1549 1549
1542 1542 1544 1544 1544 1545 1545 1545 1544 1545 1545 1544 1544 1543 1543 1542 1542 1542 1543 1543 1544 1544 1544 1543 1543 1542 1542 1542 1543 1543 1544 1545 1546 1547 1548 1548 1546 1546 1547 1549 1550 1550 1550 1550 1549 1549 1550 1551 1550 1549 1549 1548 1547 1547 1547 1547 1546 1546 1546 1546 1547 1547 1547
Wind_Speed
29 28 23 24 31 33 31 31 31 31 30 30 30 30 29 29 29 28 25 24 27 26 24 23 23 23 23 22 22 22 22 21 18 17 18 17 16 16 16 14 12 12 13 12 12 11 10 11 10 10 10 10 9 8 8 7 8 8 8 8 8 8 7
29 31 27 23 28 33 32 31 32 32 31 30 29 29 31 31 30 29 27 24 25 27 25 24 24 24 23 23 22 21 23 23 19 17 18 18 16 15 15 14 12 12 12 12 12 12 10 11 10 10 11 11 10 9 8 8 9 9 9 9 9 10 9
33 34 32 27 27 30 32 33 33 33 32 32 30 30 31 31 30 30 28 25 24 26 26 24 24 24 23 23 22 21 22 24 22 19 17 16 15 14 14 13 12 12 12 12 13 13 11 11 11 10 11 11 10 9 9 9 9 9 9 10 10 9 9
35 37 35 31 28 26 30 34 36 34 33 34 33 32 30 28 28 29 27 25 23 25 27 25 24 24 23 23 23 22 22 23 23 21 18 17 16 15 14 13 12 13 13 13 13 13 12 12 12 12 12 11 9 9 9 10 10 10 10 9 9 9 8
34 35 35 34 30 26 25 31 37 36 34 35 35 33 30 28 28 29 27 24 22 24 26 26 25 24 23 23 22 22 22 22 21 20 18 17 16 15 15 14 14 14 14 14 14 13 12 12 12 13 12 10 10 9 9 10 10 10 10 9 8 8 7
31 34 35 34 32 29 24 28 36 37 35 36 35 32 29 29 30 29 27 25 23 23 26 26 25 25 24 23 22 21 22 22 21 20 19 17 15 15 16 16 15 14 14 14 14 13 12 11 12 12 11 11 11 10 9 10 10 10 10 9 9 8 8
28 31 34 32 31 29 24 25 34 37 35 35 34 30 29 29 30 30 27 25 23 24 26 27 26 25 24 23 22 21 21 22 22 21 20 19 17 16 16 16 16 15 14 14 14 14 13 12 12 11 11 12 12 11 10 10 9 9 10 9 9 9 9
26 28 30 31 30 29 24 23 29 34 34 34 33 31 30 30 30 29 27 24 23 23 26 27 26 25 24 23 23 22 20 20 21 21 21 20 19 19 17 16 16 15 14 14 15 15 14 13 12 11 11 12 12 11 11 11 10 9 10 10 9 9 9
21 25 24 24 25 26 25 22 24 30 31 32 34 33 31 31 30 28 26 24 23 23 24 25 26 24 23 22 22 22 19 19 20 21 22 22 20 20 18 16 16 16 15 14 13 14 14 14 13 13 13 14 12 12 12 12 11 11 10 10 9 9 9
7 16 19 21 22 25 28 27 27 29 28 27 32 33 32 32 30 27 26 25 24 25 23 23 25 25 22 21 21 21 19 18 19 19 21 23 21 20 18 16 15 16 16 15 14 14 14 15 15 15 15 14 13 14 14 13 12 12 12 11 10 10 9
4 13 19 23 23 22 26 31 32 32 29 28 32 33 32 33 31 28 28 27 26 26 23 22 25 26 23 20 21 22 20 19 18 17 18 20 20 19 17 16 15 15 15 15 15 14 14 16 16 17 16 14 14 15 15 14 14 14 13 12 11 10 10
10 13 17 21 21 19 22 29 33 32 29 30 33 33 32 32 31 30 30 29 28 27 24 23 24 25 23 21 21 22 21 19 18 18 17 17 19 19 18 18 17 17 16 16 14 13 14 14 15 16 16 15 15 16 16 15 15 14 13 12 11 11 11
10 10 12 17 20 20 22 26 31 32 29 30 33 34 33 32 32 31 30 29 30 29 27 26 25 22 21 22 22 21 21 19 18 18 17 16 17 17 17 17 18 19 19 17 16 15 14 13 13 15 16 15 15 16 16 16 16 15 14 14 13 13 13
6 8 9 12 15 20 22 22 24 26 27 29 31 31 31 32 32 30 29 30 32 32 29 28 27 24 21 22 22 21 21 21 20 19 18 17 17 17 17 17 17 19 20 19 18 17 15 14 13 14 15 15 15 15 15 15 15 15 15 15 15 14 14
6 7 6 9 14 20 21 18 17 17 20 26 30 30 31 33 32 31 29 29 31 32 30 29 29 28 24 22 22 23 23 23 23 21 19 18 18 18 19 19 18 19 20 20 19 18 17 15 14 14 15 15 15 14 15 15 15 15 16 15 15 14 14
8 5 2 5 10 19 21 17 14 13 15 19 24 27 28 28 30 30 30 29 28 30 31 29 28 29 27 24 24 25 23 21 22 22 21 19 19 20 22 22 20 19 20 19 17 17 18 16 14 14 15 15 15 14 14 16 16 15 15 15 15 15 14
6 4 1 1 1 8 15 14 13 14 14 14 18 22 23 22 22 22 24 26 26 27 29 29 28 28 27 25 25 24 22 18 19 23 24 22 20 20 22 23 22 20 21 19 17 17 19 17 17 17 17 17 17 17 17 18 16 14 14 14 14 15 14
5 6 7 6 5 4 3 10 12 11 11 14 17 21 23 21 18 15 17 21 22 23 25 27 27 26 26 26 25 23 23 22 22 26 27 26 24 23 23 24 24 23 22 20 18 19 20 20 20 20 20 20 20 20 20 21 18 16 15 14 14 15 15
15 15 16 14 11 11 8 7 10 6 6 10 13 16 18 18 14 10 11 15 17 18 20 20 19 18 18 20 20 21 23 26 26 28 28 27 27 26 26 27 28 27 25 23 21 19 19 20 22 22 21 22 23 23 22 22 20 17 17 16 16 15 16
16 15 17 18 17 17 16 10 5 5 5 6 8 9 12 14 14 11 10 11 14 16 17 17 15 14 14 16 17 18 21 24 26 27 25 25 26 27 27 29 29 29 29 28 26 23 19 19 20 21 21 22 23 23 22 21 20 18 17 18 18 17 16
14 13 15 17 17 17 19 16 9 6 6 5 4 6 8 11 13 13 11 11 13 14 16 18 19 19 20 21 21 21 22 24 25 25 24 23 25 26 27 28 29 29 30 30 29 27 24 20 19 19 19 21 21 21 20 20 19 18 19 19 20 20 19
17 16 17 19 19 18 19 19 16 13 12 11 8 6 4 3 4 6 6 6 6 6 9 14 18 20 21 22 22 22 23 24 25 25 25 25 26 26 27 28 29 29 29 29 29 28 27 25 23 21 20 19 20 21 21 21 20 21 22 21 20 20 20
20 20 19 19 20 20 19 19 20 19 19 19 17 16 14 11 8 6 6 5 3 3 5 10 14 16 17 17 19 19 19 20 21 22 24 26 26 26 27 29 30 30 30 29 28 28 28 28 27 26 25 23 23 23 23 23 23 25 25 24 22 21 19
22 22 19 17 16 16 16 16 16 16 17 20 20 18 17 17 16 15 14 14 12 11 10 8 8 9 9 10 12 15 15 16 18 19 19 20 21 22 22 24 26 28 28 29 29 29 30 30 30 30 29 28 27 27 27 27 27 27 27 25 23 22 21
24 22 20 19 17 15 14 15 15 14 14 17 18 18 18 20 20 19 18 17 15 15 14 11 8 8 7 5 3 5 8 8 10 12 14 15 16 18 19 20 21 22 23 24 25 26 27 29 30 31 31 30 31 31 31 31 31 30 29 26 23 22 22
22 20 18 17 17 16 16 16 16 16 16 17 17 18 18 18 19 19 18 15 13 14 13 12 10 10 10 9 9 6 4 2 1 3 6 9 10 12 15 17 18 18 18 19 20 21 21 22 24 26 27 28 29 31 31 31 31 30 30 28 25 23 23
18 17 15 14 14 15 15 16 15 15 15 14 14 15 15 14 15 18 18 16 14 13 12 11 9 9 9 10 11 11 10 8 6 3 1 3 4 5 6 8 9 11 12 13 14 15 15 16 18 19 20 22 25 26 28 29 30 30 29 28 26 24 23
17 16 14 13 12 11 12 13 12 11 10 9 8 10 12 12 14 18 19 19 17 15 12 10 9 8 8 9 11 13 13 13 11 8 5 3 2 4 4 3 3 4 5 6 7 8 8 9 11 10 11 14 18 21 23 26 29 30 28 25 24 23 22
17 17 15 13 12 10 9 10 11 12 11 9 7 7 7 7 9 12 14 17 17 15 13 12 10 9 9 9 11 11 12 14 13 11 10 11 9 6 6 6 5 5 5 5 5 5 4 5 6 5 4 6 10 14 17 19 22 25 24 21 19 19 19
16 16 16 15 14 12 11 10 11 13 13 12 10 8 6 4 5 6 9 11 13 13 14 14 13 12 10 9 9 9 9 11 12 10 9 10 11 11 11 11 11 12 12 11 10 9 8 6 6 6 5 5 5 5 7 9 12 15 17 16 15 14 15
16 16 15 15 14 13 12 12 12 12 13 13 11 9 8 6 5 5 6 8 8 9 11 13 14 14 12 9 8 9 9 8 8 7 7 8 8 9 10 11 10 12 13 13 12 11 10 8 7 6 5 4 5 5 6 8 9 10 12 12 11 12 12
15 14 13 12 10 9 9 8 8 8 10 12 12 12 11 8 6 5 5 6 6 5 5 6 9 10 11 10 10 9 8 6 5 5 5 5 6 6 7 9 8 8 10 11 11 12 12 12 11 10 8 9 10 11 10 9 9 8 8 8 7 8 8
12 9 9 8 7 6 5 4 3 5 6 7 9 9 10 10 9 8 7 5 4 4 4 3 4 6 8 9 10 9 8 7 5 4 3 3 2 2 4 5 5 6 7 8 9 8 10 12 12 10 10 11 11 10 10 9 9 8 8 8 7 6 6
11 10 8 7 5 4 4 3 2 3 4 5 5 5 5 6 6 7 7 5 3 3 3 3 4 4 5 7 9 9 7 6 4 3 5 4 1 1 1 1 1 3 5 5 7 7 7 9 10 10 10 9 6 5 5 4 4 4 5 6 6 5 5
11 10 8 5 3 2 2 2 2 3 3 3 3 3 3 3 2 3 4 5 4 4 4 3 4 4 4 6 9 9 6 3 2 1 4 5 3 3 4 6 3 2 5 3 3 5 5 6 7 8 8 6 4 3 2 2 2 1 1 2 2 2 2
11 10 9 6 4 4 4 3 2 2 2 2 3 3 3 2 1 2 3 2 3 5 6 6 5 5 6 8 9 9 8 5 3 1 2 3 4 6 3 1 2 1 5 8 7 4 1 2 6 6 6 6 4 4 4 5 6 6 6 5 5 6 6
9 9 9 7 6 6 6 5 3 2 2 1 1 2 2 2 1 2 2 3 4 6 6 6 5 5 8 11 11 10 8 6 6 4 3 3 2 5 7 6 7 6 2 4 8 8 6 6 7 8 8 8 8 9 10 10 10 10 10 9 9 9 7
9 9 8 8 8 8 8 7 5 3 2 2 1 1 1 1 2 3 3 4 6 8 8 8 5 3 7 12 14 13 9 7 7 7 7 5 3 2 3 3 4 5 6 5 2 3 3 4 6 8 9 10 12 12 12 12 11 11 10 9 8 7 6
Wind_Direction
206 210 202 189 189 193 195 193 192 190 189 191 190 186 186 190 193 196 198 196 193 190 188 188 189 189 187 184 185 186 186 188 187 185 185 188 190 190 191 195 195 193 197 201 199 201 195 190 202 210 206 209 215 224 226 219 218 217 217 224 227 227 225
207 211 210 195 188 194 197 195 193 191 190 191 190 188 190 193 195 198 200 199 195 191 189 188 188 190 189 186 188 189 186 187 189 187 186 189 191 192 193 197 199 196 200 202 201 203 202 200 211 217 211 212 215 221 226 224 219 216 218 222 225 228 229
206 211 212 200 190 195 199 197 195 194 195 193 190 189 191 195 198 200 202 200 198 193 191 191 190 190 191 189 190 192 189 188 190 191 190 186 187 189 192 196 198 199 201 202 204 206 207 210 216 216 214 215 215 216 220 223 223 223 224 224 226 231 231
204 209 209 202 197 198 199 197 195 196 197 194 190 189 190 194 197 199 202 202 201 197 192 192 192 191 192 192 194 195 194 192 192 195 193 187 187 188 191 194 194 197 202 202 203 207 210 214 217 217 216 216 218 218 219 221 224 228 229 228 231 236 232
201 204 205 204 205 203 199 198 196 194 194 191 188 188 191 195 196 197 200 201 202 200 196 194 193 192 194 195 196 197 198 197 196 196 193 191 193 192 192 197 199 202 207 203 202 208 213 215 218 221 219 219 226 228 223 222 225 228 230 229 232 238 238
197 199 201 204 206 205 200 195 194 192 191 190 187 187 192 196 196 195 197 199 201 201 198 196 195 195 195 196 199 199 199 200 200 198 193 192 198 197 194 201 209 211 211 208 207 212 216 215 217 223 222 223 230 233 229 229 231 232 234 235 234 237 241
196 198 201 203 204 206 203 193 190 191 192 190 186 188 194 195 193 193 194 197 202 201 198 196 196 197 198 197 199 200 200 199 200 201 195 190 200 206 202 208 215 216 213 212 212 214 218 217 215 221 223 221 224 229 232 233 235 234 235 237 235 236 243
197 198 200 204 206 208 205 193 186 187 190 189 185 189 194 192 189 190 191 196 201 201 198 196 194 198 201 198 197 201 203 200 200 203 197 190 199 210 212 214 218 217 213 213 214 214 216 217 219 222 222 220 219 221 228 231 231 232 232 232 230 233 242
197 199 196 196 202 207 203 191 181 181 184 186 186 190 192 188 186 189 192 196 199 199 199 195 192 196 201 199 197 199 204 204 201 203 200 196 200 210 211 210 212 212 209 215 223 223 220 220 223 224 222 221 220 218 222 225 226 230 232 231 229 231 236
183 193 196 197 203 207 202 196 188 182 183 187 189 190 190 186 186 191 195 196 196 197 200 195 190 196 202 201 197 197 203 208 207 205 203 200 202 208 210 208 210 211 209 218 231 232 226 224 226 228 226 222 221 223 225 224 224 228 232 235 237 236 237
175 184 197 203 207 208 202 198 195 187 187 193 193 190 188 187 188 192 194 194 193 196 199 193 191 199 206 203 197 196 202 207 207 206 206 202 201 205 209 211 217 222 219 221 230 233 229 225 227 232 231 225 224 229 232 232 229 229 232 236 240 243 246
172 172 185 190 194 200 198 197 196 190 187 192 193 190 187 188 190 191 192 192 191 195 196 191 193 203 209 205 198 196 201 205 204 206 208 205 204 206 208 210 217 228 232 231 233 235 235 231 228 232 234 231 231 233 234 236 235 234 234 236 239 244 249
152 145 177 189 194 199 195 194 197 195 192 192 193 192 191 192 194 194 194 194 192 193 193 191 193 200 203 202 198 197 200 202 203 207 212 211 207 208 211 212 215 225 234 239 239 237 241 244 238 236 237 233 233 236 235 234 235 235 234 234 237 240 243
124 132 169 187 187 188 187 189 194 195 195 194 192 191 191 192 194 195 196 195 194 193 193 193 194 195 194 196 200 201 201 201 201 205 211 214 212 211 213 216 219 223 231 238 242 241 244 247 245 245 244 236 234 238 239 238 239 237 235 236 238 240 242
58 103 157 191 189 185 183 185 189 188 186 189 191 194 196 196 196 196 195 197 197 196 195 195 196 198 196 196 201 203 202 203 204 205 205 209 213 213 214 216 218 221 226 232 238 244 246 247 249 252 251 245 241 238 237 240 243 240 239 241 242 241 240
18 56 145 209 198 191 187 180 174 173 171 173 178 184 190 192 195 197 198 199 199 198 197 196 198 201 201 200 203 205 204 202 203 206 205 206 211 215 215 217 217 219 223 223 227 234 237 240 246 248 247 246 244 239 237 241 245 243 241 243 246 245 242
356 1 351 344 140 189 198 189 166 162 168 166 161 166 173 179 183 188 193 195 195 197 199 200 202 204 206 208 213 217 220 215 207 207 208 208 213 217 218 219 221 223 226 223 220 221 224 229 237 239 239 238 237 238 238 241 246 247 242 240 243 246 246
70 57 49 45 60 81 184 201 187 177 182 178 166 167 176 183 184 183 187 189 190 195 200 204 207 208 210 214 217 221 226 227 220 215 214 213 214 220 222 222 223 224 226 225 222 220 223 227 232 234 235 234 233 234 238 243 245 243 239 235 235 240 242
85 85 77 74 73 69 82 177 197 193 185 179 170 171 181 190 197 205 202 195 196 202 205 207 210 211 212 214 215 216 220 224 224 222 222 219 218 221 225 226 226 226 225 224 223 222 225 228 230 232 233 232 230 230 236 243 243 237 234 234 234 235 235
72 75 78 78 73 68 71 89 126 115 116 157 184 195 199 205 218 235 230 211 211 214 214 217 223 229 231 227 220 215 216 222 225 226 228 227 224 225 227 229 230 229 228 227 226 225 226 228 230 233 235 234 231 231 235 240 239 233 231 233 233 231 228
64 61 64 66 68 69 66 67 79 91 87 101 174 207 209 209 220 230 226 213 213 213 210 215 223 230 234 235 232 226 222 225 228 230 230 229 228 228 230 232 233 233 232 231 230 229 229 229 230 233 236 237 236 238 241 242 239 234 232 235 237 234 230
75 72 65 60 63 66 63 64 72 80 80 79 89 100 103 140 198 215 212 207 216 209 194 201 210 216 220 225 229 229 228 230 233 234 235 234 234 233 234 235 235 234 233 232 233 234 234 234 235 235 235 236 235 236 240 242 240 238 236 238 239 233 229
87 84 74 67 70 72 70 68 68 71 74 75 76 78 74 73 81 94 103 107 101 105 145 182 199 207 212 216 218 219 223 226 230 234 237 239 240 240 239 240 240 239 237 236 236 237 236 235 236 236 236 237 238 238 239 241 243 243 243 242 240 235 232
99 97 88 83 85 85 86 84 77 75 77 73 72 74 75 75 75 78 85 93 97 103 118 149 182 195 206 216 217 218 220 222 225 229 232 236 241 242 242 243 244 244 245 245 244 243 241 240 240 240 241 242 245 246 245 245 246 247 246 244 239 236 235
102 103 98 96 98 97 98 98 96 97 95 86 83 85 86 84 78 74 79 87 94 103 112 117 119 124 133 134 151 207 220 221 223 226 229 235 240 241 242 244 245 245 245 245 246 247 247 247 248 249 249 249 248 249 247 246 246 245 244 242 236 232 230
108 106 105 105 105 105 109 112 108 99 91 88 92 98 99 96 87 79 77 82 91 100 107 108 105 105 113 109 96 93 105 106 115 215 225 234 238 239 242 244 245 244 242 241 244 246 245 245 246 248 250 250 248 247 246 244 243 243 242 237 230 227 228
118 116 118 120 119 118 116 115 112 102 91 86 92 96 95 95 92 85 79 77 82 89 97 103 105 104 108 112 104 95 88 77 59 50 165 212 221 225 233 236 233 236 237 236 239 243 240 239 242 244 248 249 249 248 246 244 243 242 239 232 224 222 227
126 122 124 128 130 128 117 106 102 100 94 90 96 98 95 93 93 90 86 80 75 75 86 101 110 108 103 105 103 98 90 78 59 41 44 71 129 179 189 196 202 215 219 214 219 229 234 240 246 249 252 250 246 243 242 242 242 240 234 224 219 220 225
135 128 125 127 130 130 120 107 98 93 91 90 96 105 106 98 92 90 89 88 85 81 83 90 99 105 107 109 106 98 91 83 71 58 56 60 65 94 125 125 122 127 132 132 136 147 162 193 214 218 225 227 226 229 230 226 225 227 223 212 208 212 216
141 131 122 117 119 121 118 110 102 97 97 98 100 107 111 106 101 96 88 89 95 94 88 84 83 84 88 103 111 104 95 90 84 75 70 70 73 83 93 96 101 108 112 108 106 110 120 146 180 193 201 195 190 209 212 187 177 189 195 194 195 203 210
138 130 122 114 112 110 106 101 96 91 89 87 85 89 95 99 111 114 104 102 106 103 93 89 88 83 77 79 92 97 98 103 99 83 73 78 87 92 92 91 94 104 111 111 108 107 105 104 113 125 135 137 125 124 151 159 154 163 179 186 196 207 216
140 132 124 117 111 105 101 99 94 90 85 80 75 73 74 78 80 79 94 111 116 108 98 98 98 94 87 81 80 79 76 85 100 93 77 80 91 94 93 94 95 99 105 108 110 113 115 113 107 100 99 109 113 110 117 132 136 137 149 163 178 196 211
154 148 136 127 116 107 106 104 99 99 92 87 86 82 76 76 71 63 67 81 90 96 108 119 114 108 103 99 96 87 68 56 61 72 80 98 109 98 96 99 105 112 106 94 91 104 122 128 126 121 121 127 128 118 110 114 119 117 121 134 147 160 168
169 162 156 150 134 114 108 98 85 90 92 96 105 110 107 97 82 74 76 83 98 114 115 108 109 124 136 131 129 123 99 64 40 65 90 97 65 322 226 171 122 143 136 97 76 85 110 124 133 141 143 141 141 134 120 113 117 118 122 133 141 144 150
179 173 174 175 168 161 148 117 78 64 67 76 87 100 119 131 125 113 105 104 122 145 162 155 123 126 145 143 143 149 139 91 18 43 98 101 54 354 259 255 269 185 175 166 100 93 107 128 142 151 154 157 162 167 176 232 253 229 190 178 189 207 218
196 195 200 201 201 204 195 174 140 105 75 51 44 49 52 53 132 180 168 143 135 143 157 163 144 132 145 148 152 166 173 163 151 120 107 114 69 53 65 286 332 78 187 205 198 177 178 198 180 171 174 183 196 221 247 262 266 264 269 276 281 284 287
213 213 213 217 224 224 219 218 213 182 144 107 73 65 54 45 73 181 182 170 160 151 156 168 160 137 144 155 165 176 179 175 175 167 140 137 93 62 67 52 27 33 64 200 206 215 255 265 237 224 224 226 238 255 261 263 264 262 264 271 279 285 290
217 221 220 223 233 240 239 239 241 238 228 232 231 154 134 126 149 176 185 177 170 170 175 188 202 180 154 163 178 189 190 189 195 190 177 172 166 104 88 56 31 37 46 51 100 210 247 268 256 252 253 252 255 261 262 262 262 261 264 270 277 286 295